User: anonymous   Login
Location: Goheenville
(40.9070°N, 79.3720°W)
Time: 07:55:37
(UTC-05:00)
Language:

Meteor 2-10 Rocket - Orbit

View from above orbital plane
View from above orbital plane
View from above satellite
View from above satellite

Ground track
Ground track

The orbit data is extracted from the following two-line orbital elements,

1 14453U 83109B   16043.88804641  .00000071  00000-0  23333-4 0  9997
2 14453  81.1641 239.5226 0105655  42.4929 318.4367 14.24636533677718
Epoch (UTC): 12 February 2016 21:18:47
Eccentricity: 0.0105655
inclination: 81.1641°
perigee height: 734 km
apogee height: 885 km
right ascension of ascending node: 239.5226°
argument of perigee: 42.4929°
revolutions per day: 14.24636533
mean anomaly at epoch: 318.4367°
orbit number at epoch: 67771

The dashed part of the orbit path shows where the satellite is in the earth's shadow,  

DLR